| time (UTC) | temp C | wind direction | speed KPH | gust KPH | rain 1hr cm | rain 24hr cm | rain mn cm | humidity % | barometer mb |
| 20260906204538 | 18 | 106 | 11.3 | 20.9 | 0.00 | 0.00 | 0.00 | 64 | 1011.5 |
| 20260906203038 | 18 | 106 | 11.3 | 19.3 | 0.00 | 0.00 | 0.00 | 67 | 1011.8 |
| 20260906201533 | 17 | 106 | 12.9 | 25.7 | 0.00 | 0.00 | 0.00 | 67 | 1011.8 |
| 20260906200039 | 17 | 106 | 8.0 | 16.1 | 0.00 | 0.00 | 0.00 | 68 | 1012.0 |
| 20260906194527 | 17 | 106 | 11.3 | 20.9 | 0.00 | 0.00 | 0.00 | 68 | 1012.2 |
| 20260906193025 | 17 | 106 | 11.3 | 20.9 | 0.00 | 0.00 | 0.00 | 71 | 1012.3 |
| 20260906191522 | 16 | 106 | 8.0 | 19.3 | 0.00 | 0.00 | 0.00 | 71 | 1012.4 |
| 20260906190019 | 16 | 106 | 12.9 | 24.1 | 0.00 | 0.00 | 0.00 | 73 | 1012.6 |
| 20260906184517 | 16 | 106 | 8.0 | 17.7 | 0.00 | 0.00 | 0.00 | 75 | 1012.7 |
| 20260906183027 | 15 | 106 | 11.3 | 20.9 | 0.00 | 0.00 | 0.00 | 74 | 1012.7 |
| 20260906181513 | 15 | 106 | 11.3 | 20.9 | 0.00 | 0.00 | 0.00 | 76 | 1012.7 |
| 20260906180012 | 15 | 106 | 14.5 | 24.1 | 0.00 | 0.00 | 0.00 | 78 | 1012.9 |
| 20260906174506 | 14 | 106 | 14.5 | 25.7 | 0.00 | 0.00 | 0.00 | 80 | 1013.0 |
| 20260906173008 | 13 | 106 | 12.9 | 20.9 | 0.00 | 0.00 | 0.00 | 81 | 1013.1 |
| 20260906171502 | 13 | 106 | 11.3 | 22.5 | 0.00 | 0.00 | 0.00 | 83 | 1013.3 |
| 20260906170057 | 12 | 106 | 11.3 | 19.3 | 0.00 | 0.00 | 0.00 | 84 | 1013.4 |
| 20260906164558 | 12 | 106 | 9.7 | 16.1 | 0.00 | 0.00 | 0.00 | 88 | 1013.5 |
| 20260906163053 | 11 | 106 | 9.7 | 16.1 | 0.00 | 0.00 | 0.00 | 92 | 1013.4 |
| 20260906161558 | 11 | 106 | 4.8 | 12.9 | 0.00 | 0.00 | 0.00 | 95 | 1013.6 |
| 20260906160050 | 10 | 106 | 1.6 | 8.0 | 0.00 | 0.00 | 0.00 | 97 | 1013.8 |
| 20260906154538 | 9 | 106 | 6.4 | 12.9 | 0.00 | 0.00 | 0.00 | 97 | 1014.1 |
| 20260906153043 | 8 | 106 | 6.4 | 12.9 | 0.00 | 0.00 | 0.00 | 97 | 1014.4 |
| 20260906151533 | 8 | 106 | 4.8 | 11.3 | 0.00 | 0.00 | 0.00 | 97 | 1014.6 |
| 20260906150047 | 8 | 106 | 3.2 | 11.3 | 0.00 | 0.00 | 0.00 | 97 | 1014.5 |
| 20260906144536 | 7 | 106 | 4.8 | 11.3 | 0.00 | 0.00 | 0.00 | 97 | 1014.5 |
| 20260906143034 | 7 | 106 | 3.2 | 6.4 | 0.00 | 0.00 | 0.00 | 97 | 1014.4 |
| 20260906141534 | 6 | 106 | 0.0 | 0.0 | 0.00 | 0.00 | 0.00 | 97 | 1014.3 |
| 20260906140023 | 6 | 106 | 0.0 | 3.2 | 0.00 | 0.00 | 0.00 | 97 | 1014.4 |
| 20260906134521 | 5 | 106 | 0.0 | 0.0 | 0.00 | 0.00 | 0.00 | 97 | 1014.4 |
| 20260906133020 | 5 | 106 | 0.0 | 1.6 | 0.00 | 0.00 | 0.00 | 97 | 1014.3 |
| 20260906131526 | 5 | 106 | 0.0 | 3.2 | 0.00 | 0.00 | 0.00 | 96 | 1014.4 |
| 20260906130033 | 5 | 106 | 0.0 | 0.0 | 0.00 | 0.00 | 0.00 | 97 | 1014.6 |
| 20260906124516 | 5 | 106 | 0.0 | 0.0 | 0.00 | 0.00 | 0.00 | 96 | 1014.7 |
| 20260906123015 | 6 | 106 | 0.0 | 0.0 | 0.00 | 0.00 | 0.00 | 97 | 1014.8 |
| 20260906121514 | 6 | 106 | 1.6 | 4.8 | 0.00 | 0.00 | 0.00 | 97 | 1014.9 |
| 20260906120012 | 5 | 106 | 0.0 | 6.4 | 0.00 | 0.00 | 0.00 | 97 | 1015.1 |
| 20260906114517 | 5 | 106 | 1.6 | 6.4 | 0.00 | 0.00 | 0.00 | 97 | 1015.2 |
| 20260906113010 | 5 | 106 | 0.0 | 0.0 | 0.00 | 0.00 | 0.00 | 97 | 1015.4 |
| 20260906111509 | 5 | 106 | 0.0 | 0.0 | 0.00 | 0.00 | 0.00 | 97 | 1015.4 |
| 20260906110010 | 4 | 106 | 0.0 | 0.0 | 0.00 | 0.00 | 0.00 | 96 | 1015.5 |
| 20260906104514 | 4 | 106 | 0.0 | 0.0 | 0.00 | 0.00 | 0.00 | 97 | 1015.6 |
| 20260906103005 | 4 | 106 | 0.0 | 0.0 | 0.00 | 0.00 | 0.00 | 97 | 1015.7 |
| 20260906101503 | 3 | 106 | 0.0 | 4.8 | 0.00 | 0.00 | 0.00 | 96 | 1015.9 |
| 20260906100002 | 3 | 106 | 0.0 | 3.2 | 0.00 | 0.00 | 0.00 | 96 | 1016.0 |
| 20260906094642 | 2 | 106 | 1.6 | 4.8 | 0.00 | 0.00 | 0.00 | 96 | 1016.1 |
| 20260906093106 | 2 | 106 | 0.0 | 3.2 | 0.00 | 0.00 | 0.00 | 95 | 1016.3 |
| 20260906091557 | 2 | 106 | 3.2 | 6.4 | 0.00 | 0.00 | 0.00 | 94 | 1016.4 |
| 20260906090054 | 2 | 106 | 0.0 | 0.0 | 0.00 | 0.00 | 0.00 | 94 | 1016.5 |
| 20260906084551 | 3 | 106 | 0.0 | 0.0 | 0.00 | 0.00 | 0.00 | 94 | 1016.7 |
| 20260906083052 | 3 | 106 | 0.0 | 0.0 | 0.00 | 0.00 | 0.00 | 94 | 1016.7 |
| 20260906081553 | 3 | 106 | 0.0 | 0.0 | 0.00 | 0.00 | 0.00 | 94 | 1016.9 |
| 20260906080050 | 4 | 106 | 0.0 | 0.0 | 0.00 | 0.00 | 0.00 | 94 | 1016.9 |
| 20260906074543 | 4 | 106 | 0.0 | 0.0 | 0.00 | 0.00 | 0.00 | 94 | 1017.0 |
| 20260906073040 | 5 | 106 | 0.0 | 1.6 | 0.00 | 0.00 | 0.00 | 94 | 1016.9 |
| 20260906071539 | 5 | 106 | 1.6 | 4.8 | 0.00 | 0.00 | 0.00 | 94 | 1017.0 |
| 20260906070036 | 5 | 106 | 0.0 | 0.0 | 0.00 | 0.00 | 0.00 | 95 | 1016.9 |
| 20260906064535 | 5 | 106 | 0.0 | 1.6 | 0.00 | 0.00 | 0.00 | 94 | 1017.0 |
| 20260906063036 | 5 | 106 | 0.0 | 6.4 | 0.00 | 0.00 | 0.00 | 93 | 1017.0 |
| 20260906061537 | 6 | 106 | 3.2 | 6.4 | 0.00 | 0.00 | 0.00 | 93 | 1017.0 |
| 20260906060028 | 6 | 106 | 0.0 | 3.2 | 0.00 | 0.00 | 0.00 | 94 | 1017.1 |
| 20260906054526 | 6 | 106 | 1.6 | 3.2 | 0.00 | 0.00 | 0.00 | 94 | 1016.9 |
| 20260906053025 | 6 | 106 | 3.2 | 4.8 | 0.00 | 0.00 | 0.00 | 93 | 1017.0 |
| 20260906051524 | 6 | 106 | 4.8 | 8.0 | 0.00 | 0.00 | 0.00 | 93 | 1017.2 |
| 20260906050023 | 6 | 106 | 4.8 | 8.0 | 0.00 | 0.00 | 0.00 | 92 | 1017.3 |
| 20260906044528 | 6 | 106 | 4.8 | 8.0 | 0.00 | 0.00 | 0.00 | 92 | 1017.2 |
| 20260906043022 | 6 | 106 | 9.7 | 14.5 | 0.00 | 0.00 | 0.00 | 92 | 1017.4 |
| 20260906041521 | 6 | 106 | 4.8 | 8.0 | 0.00 | 0.00 | 0.00 | 90 | 1017.5 |
| 20260906040025 | 6 | 106 | 6.4 | 11.3 | 0.00 | 0.00 | 0.00 | 90 | 1017.4 |
| 20260906034521 | 6 | 106 | 4.8 | 11.3 | 0.00 | 0.00 | 0.00 | 89 | 1017.5 |
| 20260906033020 | 6 | 106 | 3.2 | 8.0 | 0.00 | 0.00 | 0.00 | 88 | 1017.5 |
| 20260906031534 | 7 | 106 | 0.0 | 0.0 | 0.00 | 0.00 | 0.00 | 89 | 1017.5 |
| 20260906030018 | 8 | 106 | 0.0 | 0.0 | 0.00 | 0.00 | 0.00 | 85 | 1017.6 |
| 20260906024519 | 10 | 106 | 0.0 | 1.6 | 0.00 | 0.00 | 0.00 | 79 | 1017.6 |
| 20260906023019 | 11 | 106 | 0.0 | 3.2 | 0.00 | 0.00 | 0.00 | 73 | 1017.6 |
| 20260906021518 | 12 | 106 | 1.6 | 4.8 | 0.00 | 0.00 | 0.00 | 67 | 1017.7 |
| 20260906020017 | 14 | 106 | 1.6 | 3.2 | 0.00 | 0.00 | 0.00 | 61 | 1017.7 |
| 20260906014516 | 14 | 106 | 1.6 | 4.8 | 0.00 | 0.00 | 0.00 | 58 | 1017.6 |
| 20260906013016 | 15 | 106 | 1.6 | 4.8 | 0.00 | 0.00 | 0.00 | 54 | 1017.5 |
| 20260906011517 | 15 | 106 | 4.8 | 11.3 | 0.00 | 0.00 | 0.00 | 53 | 1017.5 |
| 20260906010014 | 15 | 106 | 4.8 | 8.0 | 0.00 | 0.00 | 0.00 | 51 | 1017.7 |
| 20260906004514 | 16 | 106 | 0.0 | 4.8 | 0.00 | 0.00 | 0.00 | 45 | 1017.8 |
| 20260906003021 | 16 | 106 | 1.6 | 11.3 | 0.00 | 0.00 | 0.00 | 44 | 1017.7 |
| 20260906001511 | 16 | 106 | 0.0 | 8.0 | 0.00 | 0.00 | 0.00 | 42 | 1017.7 |
| 20260906000010 | 16 | 106 | 4.8 | 11.3 | 0.00 | 0.00 | 0.00 | 43 | 1017.7 |
| 20260905234510 | 15 | 106 | 4.8 | 16.1 | 0.00 | 0.00 | 0.00 | 44 | 1017.7 |
| 20260905233010 | 15 | 106 | 6.4 | 12.9 | 0.00 | 0.00 | 0.00 | 42 | 1017.8 |
| 20260905231507 | 15 | 106 | 3.2 | 14.5 | 0.00 | 0.00 | 0.00 | 46 | 1017.9 |
| 20260905230006 | 15 | 106 | 6.4 | 17.7 | 0.00 | 0.00 | 0.00 | 49 | 1018.1 |
| 20260905224506 | 15 | 106 | 1.6 | 14.5 | 0.00 | 0.03 | 0.00 | 50 | 1018.2 |
| 20260905223015 | 15 | 106 | 4.8 | 12.9 | 0.00 | 0.03 | 0.00 | 45 | 1018.3 |
| 20260905221507 | 15 | 106 | 9.7 | 19.3 | 0.00 | 0.03 | 0.00 | 46 | 1018.5 |
| 20260905220001 | 15 | 106 | 0.0 | 17.7 | 0.00 | 0.03 | 0.00 | 49 | 1018.6 |
| 20260905214600 | 15 | 106 | 3.2 | 12.9 | 0.00 | 0.03 | 0.00 | 50 | 1018.7 |
| 20260905213107 | 15 | 106 | 8.0 | 16.1 | 0.00 | 0.03 | 0.00 | 50 | 1018.9 |
| 20260905211559 | 15 | 106 | 11.3 | 16.1 | 0.00 | 0.03 | 0.00 | 54 | 1019.1 |
| 20260905210109 | 14 | 106 | 4.8 | 17.7 | 0.00 | 0.03 | 0.00 | 53 | 1019.2 |